Probability
3 0 0 0 0 0 0 0 0 0 0 0 0 0 0 0 0 0 0 0 0 0 0 0 0 0 0 0 0 0 0 0 0 0 0 0 0 0
0 0 0 0 0 0 0 0 0 0 0 0 0 0 0 0 0 0 0 0 0 0 0 0 0 0 0 0 0 0 0 0 0 0 0 0 0 0
0 0 0 0 0 0 0 0 0 0 0 0 0 0 0 0 0 0 0 0 0 0 0 0 0 0 0 0 0 0 0 0 0 0 0 0 0 0
0 0 0 0 0 0 0 0 0 0 0 0 0 0 0 0 0 0 0 0 0 0 0 0 0 0 0 0 0 0 0 0 0 0 0 0 0 0
0 0 0 0 0 0 0 0 0 0 0 0 0 0 0 0 0 0 0 0 0 0 0 0 0 0 0 0 0 0 0 0 0 0 0 0 0 0
0 0 0 0 0 0 0 0 0 0 0 0 0 0 0 0 0 0 0 0 0 0 0 0 0 0 0 0 0 0 0 0 0 0 0 0 0 0
0 0 0 0 0 0 0 0 0 0 0 0 0 0 0 0 0 0 0 0 0 0 0 0 0 0 0 0 0 0 0 0 0 0 0 0 0 0
0 0 0 0 0 0 0 0 0 0 0 0 0 0 0 0 0 0 0 0 0 0 0 0 0 0 0 0 0 0 0 0 0 0 0 0 0 0
0 0 0 0 0 0 0 0 0 0 0 0 0 0 0 0 0 0 0 0 0 0 0 0 0 0 0 0 0 0 0 0 0 0 0 0 0 0
0 0 0 0 0 0 0 0 0 0 0 0 0 0 0 0 0 0 0 0 0 0 0 0 0 0 0 0 0 0 0 0 0 0 0 0 0 0
0 0 0 0 0 0 0 0 0 0 0 0 0 0 0 0 0 0 0 0 0 0 0 0 0 0 0 0 0 0 0 0 0 0 0 0 0 0
0 0 0 0 0 0 0 0 0 0 0 0 0 0 0 0 0 0 0 0 0 0 0 0 0 0 0 0 0 0 0 0 0 0 0 0 0 0
0 0 0 0 0 0 0 0 0 0 0 0 0 0 0 0 0 0 0 0 0 0 0 0 0 0 0 0 0 0 0 0 0 0 0 0 0 0
0 0 0 0 0 0 0 0 0 0 0 0 0 0 0 0 0 0 0 0 0 0 0 0 0 0 0 0 0 0 0 0 0 0 0 0 0 0
0 0 0 0 0 0 0 0 0 0 0 0 0 0 0 0 0 0 0 0 0 0 0 0 0 0 0 0 0 0 0 0 0 0 0 0 0 0
0 0 0 0 0 0 0 0 0 0 0 0 0 0 0 0 0 0 0 0 0 0 0 0 0 0 0 0 0 0 0 0 0 0 0 0 0 0
0 0 0 0 0 0 0 0 0 0 0 0 0 0 0 0 0 0 0 0 0 0 0 0 0 0 0 0 0 0 0 0 0 0 0 0 0 0
0 0 0 0 0 0 0 0 0 0 0 0 0 0 0 0 0 0 0 0 0 0 0 0 0 0 0 0 0 0 0 0 0 0 0 0 0 0
0 0 0 0 0 0 0 0 0 0 0 0 0 0 0 0 0 0 0 0 0 0 0 0 0 0 0 0 0 0 0 0 0 0 0 0 0 0
0 0 0 0 0 0 0 0 0 0 0 0 0 0 0 0 0 0 0 0 0 0 0 0 0 0 0 0 0 0 0 0 0 0 0 0 0 0
0 0 0 0 0 0 0 0 0 0 0 0 0 0 0 0 0 0 0 0 0 0 0 0 0 0 0 0 0 0 0 0 0 0 0 0 0 0
0 0 0 0 0 0 0 0 0 0 0 0 0 0 0 0 0 0 0 0 0 0 0 0 0 0 0 0 0 0 0 0 0 0 0 0 0 0
0 0 0 0 0 0 0 0 0 0 0 0 0 0 0 0 0 0 0 0 0 0 0 0 0 0 0 0 0 0 0 0 0 0 0 0 0 0
Height
5798 5798 5798 5798 5799 5799 5799 5800 5801 5802 5802 5803 5803 5803 5803 5803 5803 5803 5803 5803 5803 5802 5802 5802 5802 5802 5802 5802 5802 5802 5802 5802 5802 5802 5802 5802 5803 5803
5792 5792 5792 5792 5792 5792 5792 5793 5794 5795 5795 5796 5796 5796 5796 5796 5797 5797 5796 5796 5796 5795 5795 5795 5795 5795 5794 5794 5794 5794 5793 5793 5793 5793 5793 5793 5793 5793
5786 5786 5785 5785 5785 5785 5786 5786 5787 5788 5789 5789 5789 5790 5790 5790 5790 5789 5789 5789 5789 5788 5788 5787 5787 5787 5786 5786 5786 5785 5785 5784 5784 5784 5784 5784 5784 5784
5780 5780 5779 5779 5779 5779 5779 5779 5780 5780 5782 5782 5783 5783 5783 5783 5783 5783 5783 5782 5782 5781 5781 5780 5780 5779 5779 5778 5777 5777 5776 5775 5775 5775 5774 5774 5774 5773
5775 5775 5774 5774 5774 5774 5774 5774 5774 5774 5775 5776 5776 5776 5776 5776 5776 5776 5776 5775 5775 5775 5774 5773 5773 5772 5771 5770 5769 5768 5767 5766 5766 5765 5764 5764 5763 5763
5771 5770 5769 5769 5768 5768 5769 5769 5769 5769 5769 5770 5770 5770 5770 5770 5770 5770 5770 5769 5768 5768 5767 5766 5765 5764 5763 5762 5761 5760 5758 5757 5756 5756 5755 5754 5753 5752
5766 5765 5764 5764 5764 5763 5763 5763 5764 5764 5764 5764 5765 5764 5764 5764 5764 5763 5763 5763 5762 5761 5760 5759 5758 5757 5755 5754 5752 5751 5749 5748 5747 5746 5745 5744 5743 5742
5762 5761 5760 5759 5759 5758 5758 5758 5758 5759 5759 5759 5759 5759 5758 5758 5758 5757 5756 5756 5756 5755 5753 5752 5750 5749 5747 5746 5744 5742 5741 5739 5738 5737 5736 5735 5734 5733
5758 5757 5755 5754 5753 5753 5753 5753 5753 5753 5753 5754 5753 5753 5752 5752 5752 5751 5750 5749 5749 5747 5746 5745 5743 5741 5739 5737 5736 5734 5732 5731 5729 5728 5727 5725 5724 5723
5754 5753 5751 5750 5749 5749 5749 5749 5748 5748 5748 5748 5748 5747 5746 5745 5745 5745 5743 5743 5742 5740 5739 5738 5736 5734 5733 5730 5728 5726 5724 5723 5721 5720 5718 5716 5715 5713
5751 5750 5748 5747 5745 5745 5744 5744 5744 5744 5743 5743 5742 5741 5740 5739 5739 5738 5737 5736 5735 5734 5732 5731 5729 5728 5726 5724 5721 5719 5717 5715 5713 5711 5710 5708 5706 5704
5748 5747 5746 5744 5743 5742 5741 5740 5740 5740 5739 5738 5737 5736 5735 5734 5732 5731 5730 5729 5728 5727 5725 5724 5722 5720 5719 5717 5714 5711 5709 5707 5705 5703 5701 5699 5696 5694
5746 5745 5743 5742 5740 5739 5738 5737 5736 5736 5734 5733 5732 5731 5730 5728 5727 5725 5723 5722 5721 5720 5718 5716 5715 5713 5711 5709 5707 5704 5701 5699 5697 5695 5692 5690 5687 5685
5743 5742 5740 5739 5737 5736 5735 5734 5732 5731 5730 5729 5727 5726 5725 5723 5721 5720 5718 5716 5714 5713 5711 5709 5707 5705 5703 5701 5699 5696 5693 5691 5688 5686 5683 5681 5678 5675
5740 5739 5737 5736 5734 5733 5731 5730 5729 5727 5726 5725 5723 5721 5720 5718 5716 5714 5712 5710 5708 5706 5704 5702 5700 5698 5696 5693 5691 5688 5686 5683 5680 5677 5674 5671 5668 5666
5736 5735 5734 5732 5731 5729 5728 5726 5725 5723 5721 5720 5718 5717 5715 5713 5711 5709 5707 5704 5702 5700 5697 5695 5693 5690 5688 5686 5683 5680 5677 5674 5671 5668 5665 5662 5659 5656
5732 5731 5730 5728 5727 5725 5724 5722 5721 5719 5717 5715 5713 5712 5710 5708 5705 5703 5701 5698 5696 5694 5691 5689 5686 5683 5681 5678 5675 5672 5669 5666 5662 5659 5656 5653 5650 5646
5729 5727 5726 5724 5723 5721 5720 5718 5716 5714 5712 5711 5709 5707 5705 5703 5700 5698 5696 5693 5690 5688 5685 5682 5679 5676 5674 5670 5667 5664 5661 5657 5653 5649 5646 5643 5640 5637
5724 5723 5721 5720 5718 5716 5715 5713 5711 5709 5707 5706 5704 5702 5700 5698 5695 5693 5690 5687 5684 5681 5678 5675 5672 5669 5666 5663 5660 5655 5651 5648 5644 5641 5637 5634 5631 5628
5719 5718 5716 5715 5713 5711 5710 5708 5706 5704 5702 5700 5698 5696 5694 5692 5689 5687 5684 5681 5678 5675 5671 5668 5665 5662 5658 5655 5652 5647 5642 5639 5635 5631 5628 5625 5622 5619
5713 5712 5711 5709 5708 5706 5704 5702 5700 5698 5696 5694 5693 5691 5688 5686 5683 5680 5678 5675 5672 5668 5665 5661 5658 5654 5650 5647 5643 5639 5635 5630 5626 5622 5619 5616 5614 5611
5707 5706 5705 5703 5702 5700 5698 5697 5695 5692 5690 5689 5687 5685 5682 5680 5677 5674 5671 5668 5665 5661 5658 5654 5651 5647 5643 5639 5636 5632 5628 5624 5619 5615 5611 5608 5605 5602
5701 5700 5699 5697 5696 5694 5692 5690 5689 5687 5685 5683 5681 5678 5676 5673 5670 5668 5665 5661 5658 5655 5651 5647 5644 5640 5636 5632 5628 5624 5620 5616 5612 5608 5605 5601 5598 5595
Wind_Speed
19 19 20 20 21 22 22 23 23 24 23 24 25 25 26 26 26 26 26 26 26 25 26 27 27 27 27 28 28 28 29 29 30 30 31 32 32 33
20 20 21 21 22 23 23 24 24 24 24 24 25 25 26 26 26 25 25 25 25 25 26 26 27 27 27 28 28 28 29 30 30 30 31 32 33 33
18 19 20 21 22 23 23 24 25 25 25 24 24 24 25 25 25 25 25 26 26 25 26 26 27 27 27 29 29 30 30 30 31 32 33 33 33 34
18 18 19 19 20 21 21 21 22 23 23 23 23 23 24 24 24 25 25 25 25 25 26 26 27 27 28 28 29 30 31 31 31 32 33 34 34 34
17 17 17 17 18 19 19 19 19 19 20 21 22 22 23 24 24 24 24 25 25 25 25 26 26 27 27 28 29 30 31 31 31 32 33 34 34 35
16 16 16 17 17 19 19 19 19 19 19 20 20 21 22 22 23 24 24 24 24 25 25 25 26 26 27 28 29 29 29 30 31 32 33 33 33 34
16 16 16 17 17 18 18 18 19 19 19 19 20 21 22 22 22 23 23 23 24 24 25 25 26 27 28 28 29 29 30 30 31 31 32 32 33 34
15 15 16 16 17 17 17 17 17 18 19 19 19 20 20 21 22 22 22 22 23 24 25 25 26 26 27 27 28 29 30 31 31 32 32 33 33 33
14 15 15 15 16 16 16 16 16 17 18 18 18 19 19 19 20 20 21 22 23 24 24 24 25 25 26 27 28 29 29 29 30 30 31 31 31 32
13 14 14 15 15 15 15 16 16 16 17 17 17 18 18 19 20 21 21 22 23 24 24 24 24 25 26 26 26 26 26 27 28 28 28 29 29 30
13 13 14 13 13 13 14 15 17 17 17 17 18 19 19 19 20 21 22 22 22 22 24 24 25 25 25 25 26 26 26 27 27 27 28 29 29 30
13 12 12 14 14 14 14 15 16 17 18 19 19 20 19 20 20 21 22 22 23 23 24 24 24 25 25 26 26 26 26 26 27 28 29 29 30 30
13 13 13 13 14 14 14 15 15 17 18 18 19 19 19 19 19 20 20 21 22 23 23 24 24 25 25 25 26 26 27 28 28 29 30 30 31 31
14 14 14 13 13 13 14 14 15 16 17 17 17 18 18 18 19 19 20 21 22 23 23 24 25 25 26 26 26 27 28 28 29 29 30 31 31 31
14 14 14 14 14 14 15 16 16 16 16 17 17 17 18 18 19 19 19 20 22 23 24 24 25 25 26 26 27 27 28 29 29 29 30 31 31 31
14 14 15 16 16 16 16 17 17 17 17 17 18 17 18 18 18 19 20 21 22 22 23 24 24 25 26 26 27 27 28 29 29 30 31 31 31 31
14 15 15 16 16 16 16 16 17 17 17 17 17 17 18 18 19 19 20 21 22 22 24 24 25 26 26 27 27 28 29 30 30 31 31 31 31 31
15 16 16 16 16 17 17 17 17 18 18 18 18 18 18 18 19 19 21 21 23 24 25 25 26 26 27 28 29 30 30 30 31 31 31 31 30 30
16 16 17 17 17 18 18 18 18 18 19 19 19 19 19 20 20 21 22 23 23 24 25 25 26 26 27 28 29 30 30 31 31 31 30 29 29 29
17 17 18 18 18 18 18 18 19 19 20 20 20 20 21 21 22 22 22 23 24 24 25 26 27 27 28 28 29 30 31 31 31 31 30 29 28 28
19 19 18 18 18 18 18 19 20 20 20 19 19 20 21 22 22 22 23 23 24 25 25 26 26 27 28 29 29 29 30 30 30 29 29 27 26 26
19 19 19 19 19 19 20 20 21 20 20 19 20 21 22 22 22 23 23 24 26 26 26 26 26 27 28 28 28 29 29 29 29 28 27 26 25 24
20 20 20 19 19 20 20 21 21 20 20 20 20 21 22 23 23 24 25 25 26 27 27 27 26 27 27 28 28 29 29 28 28 27 25 25 24 24
Wind_Direction
272 272 272 269 268 267 267 267 266 265 265 265 265 268 269 271 272 272 271 271 272 271 272 271 272 272 270 270 270 269 269 268 266 266 266 265 266 266
274 272 272 270 270 268 267 267 266 265 266 266 266 267 270 274 275 274 271 270 271 272 271 271 271 270 270 271 270 270 271 270 267 266 267 268 269 268
277 275 273 271 270 269 268 266 266 265 264 266 268 268 270 273 274 273 272 270 272 271 272 273 272 272 271 272 271 271 271 272 269 267 268 269 269 268
279 278 275 274 271 270 271 270 268 266 266 267 268 268 270 273 273 273 272 271 271 271 271 272 273 273 273 273 274 274 273 273 271 270 270 269 269 269
284 283 279 278 275 274 275 274 271 269 268 268 270 271 271 273 272 273 272 272 272 272 272 273 275 275 274 274 274 275 275 273 272 272 271 270 271 271
286 283 280 280 279 277 275 272 271 270 272 271 273 273 273 273 272 273 272 273 274 273 274 276 277 277 277 277 277 278 277 276 274 273 273 274 273 272
287 284 281 281 282 280 276 273 272 273 273 274 275 275 275 275 275 276 274 274 276 276 276 278 279 280 280 279 280 279 279 279 278 277 276 275 275 274
289 286 283 282 283 281 280 278 276 275 274 276 279 279 280 278 278 277 275 277 279 280 281 282 282 283 282 282 282 281 281 281 280 279 278 276 276 275
293 293 289 285 284 283 281 279 277 277 277 278 281 281 280 281 282 281 281 282 282 283 285 285 285 286 286 286 285 284 283 283 283 281 280 278 277 277
298 300 296 293 289 283 280 279 279 280 280 280 283 283 283 285 285 285 285 285 285 285 285 286 286 287 289 290 288 286 285 284 284 284 282 282 281 279
296 301 302 300 296 291 285 281 281 283 283 284 286 286 286 286 286 286 286 286 287 287 286 286 287 287 289 291 292 289 287 287 287 286 286 285 284 283
296 297 301 305 305 301 294 289 285 285 286 286 287 286 286 286 286 287 287 287 287 286 286 285 286 287 289 291 292 291 290 289 288 288 287 288 288 285
293 296 301 304 303 302 298 293 290 290 290 289 290 289 290 289 290 291 291 290 288 288 288 287 288 289 290 291 291 291 291 291 291 290 289 290 289 287
293 295 297 300 300 301 301 298 296 296 296 294 293 293 292 290 290 292 292 292 292 292 291 291 291 292 293 293 293 293 292 293 294 292 292 292 290 287
293 294 296 299 299 299 300 301 301 299 299 299 297 296 295 295 296 296 296 295 295 295 295 294 295 296 295 296 295 295 296 296 296 295 294 294 292 289
291 292 295 297 300 301 302 302 301 299 298 299 299 299 298 299 299 299 299 299 300 301 301 300 300 299 298 299 298 298 298 298 298 298 297 295 294 292
289 293 296 298 300 300 302 304 303 301 301 302 302 300 301 302 301 301 301 301 302 303 303 303 302 301 301 300 300 300 299 299 300 299 298 296 295 294
289 292 294 296 297 299 302 304 304 303 302 302 302 303 303 304 303 302 302 302 303 304 303 303 303 301 300 302 302 302 301 301 301 300 299 298 297 296
290 291 293 295 297 300 302 304 304 303 301 301 301 301 301 302 302 301 302 302 303 303 303 304 305 304 303 303 304 305 304 303 303 302 300 299 298 296
290 291 293 295 298 301 304 303 302 300 299 300 300 300 301 302 303 303 304 304 305 306 306 306 306 306 306 306 306 306 306 306 305 304 302 300 299 296
289 290 292 296 298 298 300 301 301 300 301 301 301 301 303 303 303 304 305 306 307 308 308 308 308 308 308 308 307 308 309 310 309 307 305 303 301 298
290 291 293 294 295 297 299 300 300 300 300 300 301 303 304 304 303 304 304 306 308 308 309 309 309 310 310 310 309 309 309 311 311 309 307 306 306 303
288 290 291 293 295 295 297 298 299 298 298 300 302 304 306 305 304 305 305 306 308 308 308 308 308 310 311 311 310 310 310 310 311 310 309 310 309 305